User: anonymous   Login
Location: Unspecified
(0.0000°N, 0.0000°E)
Time: 23:24:19
(UTC+00:00)
Language:

Falcon 1 - Orbit

View from above orbital plane
View from above orbital plane
View from above satellite
View from above satellite

Ground track
Ground track

The orbit data is extracted from the following two-line orbital elements,

1 33393U 08048A   19145.98221306  .00000754  00000-0  12990-4 0  9993
2 33393   9.3472  37.3195 0013630 286.2872  73.5828 14.84738201578083
Epoch (UTC): 25 May 2019 23:34:23
Eccentricity: 0.0013630
inclination: 9.3472°
perigee height: 605 km
apogee height: 624 km
right ascension of ascending node: 37.3195°
argument of perigee: 286.2872°
revolutions per day: 14.84738201
mean anomaly at epoch: 73.5828°
orbit number at epoch: 57808

The dashed part of the orbit path shows where the satellite is in the earth's shadow,  

DLR